IRIDIUM 33 DEB, 37562

Orbit data source: Space-Track

IRIDIUM 33 DEB, 37562 is space debris in LEO originally from a launch on Sun, 14 Sep 1997 UTC launched from the Tyuratam Missile And Space Complex (TTMTR). The debris from Iridium 33, an American commercial communications satellite, has been tracked extensively since its accidental collision with the defunct Russian satellite Cosmos 2251 in 2009. This event, occurring at high speed in low Earth orbit (LEO), generated thousands of pieces of space debris, significantly increasing the risk of further collisions. The Iridium 33 debris cloud has impacted space traffic management and orbital debris mitigation strategies, making it a subject of ongoing study in space situational awareness.

Loading next visibility...
Identifier
37562, 1997-051XX
Orbit
LEO
Country
Flag of USUS
Related business
Manufacturer
Unknown
Mission
Spacecraft
Bus & Motor
Unknown
Mass
Unknown
Launch date (UTC)
1997-09-14 (28 years ago)
Launch vehicle
Unknown
Launch site
Tyuratam Missile And Space Complex (TTMTR)
Object type
Payload
Rocket body
Debris
Shape & HBR
Unknown shape, 0.1 m
Radar Cross Section
Small (<0.1 m²)

Expand to show TLE details & history
Last TLE update: 6 hours ago

TLE from 6 hours ago
0 IRIDIUM 33 DEB
1 37562U 97051XX  26038.25400643  .00007460  00000-0  16433-2 0  9994
2 37562  86.3758  18.9380 0021612 278.3564 145.0915 14.57180607871514
Epoch: 2026-02-07T06:05Z
TLE epoch observation values (Epoch: 2026-02-07T06:05:46.155Z)
Latitude
63.44931°
Longitude
157.35852°
Altitude
725.86 km
Speed
7.492 km/s
True Right ascension
01h 44m 43s
True Declination
63° 18' 39"
Sunlit
Object was in daylight at epoch
Visualization orbit readout
Latitude
Unknown
Longitude
Unknown
Altitude
Unknown
Speed
Unknown
Apparent Right ascension
Unknown
Apparent Declination
Unknown
Sunlit
N/A
Visualization observer readout
Local Sidereal Time
14:40:24
Azimuth
Unknown
Elevation
Unknown
Doppler factor
Unknown
Orbital elements
Apogee altitude
714.52 km
Perigee altitude
683.929 km
Semi-major axis
7,077.362 km
Eccentricity
0.00216
Inclination
86.3758°
RAAN
18.938°
Arg. of periapsis
278.3564°
True anomaly
145.23291°
Mean anomaly
145.0915°
Eccentric anomaly
145.16224°
Mean motion
3.64532 °/min
Orbital period
98.76 mins
BSTAR
0.0016433
Loading maneuver chart data...
Computing Atmospheric mass density...
Loading historical data...
Loading historical data...
Loading historical data...
Loading historical data...
Loading historical data...
Loading historical data...
Loading historical data...

Documentation

Showing up to 5 results
|